Date String (YYYY-MM-DD hh:mm:ss) UTC,Instrument flags,Ambient pressure (hPa),Sample flow (lpm),Bypass flow (lpm),Sample temperature (°C),Ambient temperature (°C),ASC tube jacket temperature (°C),LED temperature (°C),Box temperature (°C),Sample RH (%),Span deviation,Mass concentration (μg/m³),Mass concentration (μg/m³),Mass concentration (μg/m³)
DateTimeUTC,F1_M11,P_M11,Q1_M11,Q2_M11,T1_M11,T2_M11,T3_M11,T4_M11,T5_M11,U1_M11,ZSPAN_M11,X0_M11,X2_M11,X1_M11
2021-10-08 04:00:00,,0827.1,5.00,0.00,29.6,28.1,00.0,38.8,31.4,16.2,0000.0,0009.49,0004.00,0003.37
2021-10-08 04:01:00,,0827.2,5.00,0.00,29.7,28.3,00.0,38.8,31.4,16.2,0000.0,0009.82,0003.95,0003.36
2021-10-08 04:02:00,,0827.2,4.98,0.00,29.7,28.4,00.0,38.8,31.5,16.2,0000.0,0010.69,0003.94,0003.36
2021-10-08 04:03:00,,0827.2,5.01,0.00,29.7,28.6,00.0,38.8,31.5,16.2,0000.0,0010.56,0003.94,0003.36
2021-10-08 04:04:00,,0827.2,5.00,0.00,29.7,28.7,00.0,38.8,31.5,16.1,0000.0,0010.37,0003.92,0003.35
2021-10-08 04:05:00,,0827.2,5.00,0.00,29.8,28.8,00.0,38.8,31.6,16.1,0000.0,0010.52,0003.98,0003.36
2021-10-08 04:06:00,,0827.2,4.99,0.00,29.8,28.8,00.0,38.8,31.6,16.1,0000.0,0010.86,0004.00,0003.35
2021-10-08 04:07:00,,0827.2,4.99,0.00,29.8,28.9,00.0,38.8,31.7,16.1,0000.0,0010.71,0004.03,0003.36
2021-10-08 04:08:00,,0827.2,5.01,0.00,29.9,28.9,00.0,38.8,31.7,16.1,0000.0,0010.31,0004.01,0003.36
2021-10-08 04:09:00,,0827.2,5.00,0.00,29.9,29.0,00.0,38.9,31.7,16.1,0000.0,0011.18,0004.01,0003.36
2021-10-08 04:10:00,,0827.2,4.99,0.00,29.9,29.0,00.0,38.9,31.7,16.0,0000.0,0011.05,0003.98,0003.36
2021-10-08 04:11:00,,0827.2,5.01,0.00,30.0,29.0,00.0,38.9,31.7,16.0,0000.0,0011.42,0003.98,0003.37
2021-10-08 04:12:00,,0827.2,5.00,0.00,30.0,29.1,00.0,38.9,31.8,16.1,0000.0,0011.11,0003.96,0003.37
2021-10-08 04:13:00,,0827.2,4.99,0.00,30.0,29.1,00.0,39.0,31.8,16.1,0000.0,0010.44,0003.97,0003.37
2021-10-08 04:14:00,,0827.2,4.99,0.00,30.0,29.1,00.0,39.0,31.8,16.1,0000.0,0010.58,0003.98,0003.37
2021-10-08 04:15:00,,0827.2,5.00,0.00,30.1,29.2,00.0,39.0,31.9,16.1,0000.0,0011.01,0003.94,0003.36
2021-10-08 04:16:00,,0827.2,5.02,0.00,30.1,28.3,00.0,39.0,31.7,16.1,0000.0,0010.98,0003.86,0003.34
2021-10-08 04:17:00,,0827.1,4.99,0.00,29.9,26.4,00.0,39.0,31.2,16.3,0000.0,0010.64,0003.80,0003.32
2021-10-08 04:18:00,,0827.1,5.02,0.00,29.8,26.3,00.0,39.0,31.1,16.4,0000.0,0010.95,0003.80,0003.32
2021-10-08 04:19:00,,0827.1,5.00,0.00,29.7,26.6,00.0,38.9,31.1,16.2,0000.0,0011.08,0003.81,0003.31
2021-10-08 04:20:00,,0827.1,4.99,0.00,29.7,27.1,00.0,38.9,31.2,15.9,0000.0,0010.15,0003.80,0003.29
2021-10-08 04:21:00,,0827.1,4.99,0.00,29.6,27.4,00.0,38.8,31.2,16.0,0000.0,0009.91,0003.78,0003.28
2021-10-08 04:22:00,,0827.4,5.01,0.00,29.6,27.7,00.0,38.8,31.3,15.9,0000.0,0009.32,0003.75,0003.26
2021-10-08 04:23:00,,0827.0,5.00,0.00,29.7,28.0,00.0,38.8,31.4,15.9,0000.0,0010.26,0003.76,0003.25
2021-10-08 04:24:00,,0827.0,5.00,0.00,29.7,28.2,00.0,38.8,31.4,16.1,0000.0,0010.38,0003.74,0003.24
2021-10-08 04:25:00,,0827.0,4.99,0.00,29.7,28.3,00.0,38.8,31.4,15.9,0000.0,0010.15,0003.75,0003.23
2021-10-08 04:26:00,,0827.1,5.01,0.00,29.7,28.5,00.0,38.8,31.5,15.8,0000.0,0010.22,0003.77,0003.23
2021-10-08 04:27:00,,0827.3,4.99,0.00,29.7,28.6,00.0,38.8,31.5,15.5,0000.0,0011.00,0003.78,0003.23
2021-10-08 04:28:00,,0827.2,5.00,0.00,29.8,28.6,00.0,38.8,31.6,15.4,0000.0,0010.96,0003.79,0003.24
2021-10-08 04:29:00,,0827.3,5.01,0.00,29.8,28.7,00.0,38.8,31.6,15.3,0000.0,0010.41,0003.76,0003.23
2021-10-08 04:30:00,,0827.1,4.99,0.00,29.8,28.8,00.0,38.8,31.6,15.2,0000.0,0010.43,0003.75,0003.23
2021-10-08 04:31:00,,0827.0,5.00,0.00,29.9,28.8,00.0,38.9,31.7,15.2,0000.0,0010.54,0003.73,0003.23
2021-10-08 04:32:00,,0827.0,5.01,0.00,29.9,28.9,00.0,38.9,31.7,15.1,0000.0,0010.52,0003.75,0003.23
2021-10-08 04:33:00,,0827.0,4.99,0.00,29.9,28.9,00.0,38.9,31.7,15.3,0000.0,0010.45,0003.77,0003.24
2021-10-08 04:34:00,,0827.0,5.01,0.00,29.9,28.9,00.0,38.9,31.7,15.1,0000.0,0009.37,0003.77,0003.25
2021-10-08 04:35:00,,0827.0,4.99,0.00,30.0,29.0,00.0,38.9,31.7,15.2,0000.0,0008.97,0003.73,0003.23
2021-10-08 04:36:00,,0827.0,5.01,0.00,30.0,29.0,00.0,38.9,31.8,15.0,0000.0,0009.17,0003.69,0003.23
2021-10-08 04:37:00,,0826.9,5.00,0.00,30.0,29.0,00.0,39.0,31.7,15.0,0000.0,0009.48,0003.66,0003.23
2021-10-08 04:38:00,,0827.2,4.99,0.00,30.0,29.1,00.0,39.0,31.8,15.1,0000.0,0008.92,0003.66,0003.23
2021-10-08 04:39:00,,0827.0,5.00,0.00,30.0,29.1,00.0,39.0,31.8,15.0,0000.0,0008.89,0003.68,0003.22
2021-10-08 04:40:00,,0827.2,5.01,0.00,30.1,29.1,00.0,39.0,31.9,15.0,0000.0,0008.85,0003.64,0003.21
2021-10-08 04:41:00,,0827.0,5.00,0.00,30.1,29.2,00.0,39.0,31.9,15.0,0000.0,0008.64,0003.61,0003.20
2021-10-08 04:42:00,,0827.0,4.99,0.00,30.1,28.6,00.0,39.0,31.8,15.0,0000.0,0008.48,0003.63,0003.19
2021-10-08 04:43:00,,0826.9,5.01,0.00,29.9,26.5,00.0,39.0,31.2,15.2,0000.0,0008.59,0003.61,0003.19
2021-10-08 04:44:00,,0826.9,5.00,0.00,29.8,26.2,00.0,39.0,31.1,15.3,0000.0,0008.43,0003.56,0003.19
2021-10-08 04:45:00,,0826.9,5.00,0.00,29.7,26.5,00.0,38.9,31.2,15.4,0000.0,0008.33,0003.53,0003.18
2021-10-08 04:46:00,,0826.9,4.99,0.00,29.7,27.0,00.0,38.9,31.2,15.4,0000.0,0008.91,0003.55,0003.19
2021-10-08 04:47:00,,0826.9,5.01,0.00,29.7,27.3,00.0,38.9,31.3,15.5,0000.0,0008.87,0003.60,0003.20
2021-10-08 04:48:00,,0826.9,4.99,0.00,29.7,27.7,00.0,38.8,31.3,15.4,0000.0,0008.36,0003.62,0003.22
2021-10-08 04:49:00,,0826.9,5.00,0.00,29.7,27.9,00.0,38.8,31.3,15.4,0000.0,0008.49,0003.63,0003.22
2021-10-08 04:50:00,,0827.0,5.00,0.00,29.7,28.1,00.0,38.8,31.4,15.4,0000.0,0009.17,0003.64,0003.23
2021-10-08 04:51:00,,0826.9,5.00,0.00,29.7,28.3,00.0,38.8,31.4,15.4,0000.0,0009.13,0003.68,0003.25
2021-10-08 04:52:00,,0826.9,5.01,0.00,29.7,28.4,00.0,38.8,31.5,15.4,0000.0,0009.20,0003.70,0003.27
2021-10-08 04:53:00,,0827.0,5.01,0.00,29.7,28.5,00.0,38.8,31.5,15.4,0000.0,0009.20,0003.71,0003.28
2021-10-08 04:54:00,,0826.9,4.98,0.00,29.8,28.6,00.0,38.8,31.6,15.4,0000.0,0009.06,0003.71,0003.29
2021-10-08 04:55:00,,0826.9,5.01,0.00,29.8,28.7,00.0,38.8,31.6,15.3,0000.0,0009.13,0003.75,0003.30
2021-10-08 04:56:00,,0826.9,4.99,0.00,29.8,28.8,00.0,38.9,31.6,15.3,0000.0,0009.80,0003.77,0003.31
2021-10-08 04:57:00,,0827.0,5.00,0.00,29.8,28.8,00.0,38.9,31.6,15.3,0000.0,0009.22,0003.76,0003.32
2021-10-08 04:58:00,,0826.9,5.01,0.00,29.9,28.9,00.0,38.9,31.7,15.3,0000.0,0009.54,0003.78,0003.32
2021-10-08 04:59:00,,0826.9,5.00,0.00,29.9,28.9,00.0,38.9,31.7,15.2,0000.0,0009.30,0003.80,0003.32
